Location: Devargunta
(16.7631°N, 80.9077°E)
Time: 19:02:48
(UTC+00:00)

FUSE - Pass Details

Date: 19 January 2021
Orbit: 742 x 756 km, 25.0° (Epoch: 03 March)

Event Time Altitude Azimuth Distance (km) Brightness Sun altitude
Rises 13:15:10 0° 290° (WNW) 3,168 8.1 -12.1°
Reaches altitude 10° 13:17:38 10° 292° (WNW) 2,242 7.2 -12.6°
Maximum altitude 13:22:57 80° 18° (NNE) 750 3.9 -13.8°
Enters shadow 13:27:03 17° 105° (ESE) 1,793 5.4 -14.8°
